Weather in Pedernales

Dominican Republic     18°02′08″N   71°44′38″W
temp.,
°C
wind,
m/s
gust,
m/s
humid.,
%
clouds,
%
prec.,
mm/h
press.,
hPa
HPBL,
m
6 may, thu
thu623:00+26e33650 0.0 1017194
02:00+25e24655 0.1 1015317
05:00+25e22665 0.0 1015232
08:00+26ese22645 0.0 1016404
11:00+28sw32586 0.0 1017681
14:00+28s245883 0.4 1016844
17:00+29sse675810 0.1 1014626
20:00+26se56710 0.1 1015434
7 may, fri
fri723:00+26e33670 0.0 1016242
02:00+25e34640 0.0 1015299
05:00+25e23640 0.0 1014242
08:00+26ese11620 0.0 1016444
11:00+28wsw32540 0.0 1016631
14:00+29s44567 0.0 1015846
17:00+29sse456023 0.1 1014688
20:00+26se56733 0.2 1015475
8 may, sat
sat823:00+25e347111 0.9 1016238
02:00+25ne22683 2.0 1015230
05:00+25ne116511 0.2 1015256
08:00+26ese11634 0.2 1016444
11:00+28wsw325912 0.0 1017645
14:00+28wsw325917 0.0 1015847
17:00+29sse22617 0.2 1014679
20:00+26ese34725 0.2 1016405
9 may, sun
sun923:00+26ese23690 0.0 1017238
02:00+25ene23651 0.1 1016214
05:00+25ne22622 0.0 1016146
08:00+26ese225823 0.0 1017307
11:00+29wsw32572 0.0 1017645
14:00+30wsw23522 0.0 1015769
17:00+29wnw13542 0.0 1014572
20:00+27ese35670 0.0 1015259
10 may, mon
mon1023:00+26e45630 0.0 1017169
02:00+26e34630 0.0 1015144
05:00+25e34630 0.0 1015202
08:00+27e1359100 0.0 1016367
11:00+30se7952100 0.0 1016723
14:00+31se91049100 0.0 1014730
17:00+31se9104917 0.3 1013602
20:00+28ese9116037 0.3 1015377